Showing default

QIANFAN-34, 61567

Orbit data source: Space-Track

QIANFAN-34, 61567 is a Chinese payload satellite in LEO that was launched on Tue, 15 Oct 2024 UTC via a CHANG ZHENG 6A launch vehicle from the Taiyaun Space Center, China (TSC). Payload-class satellites include a variety of spacecraft equipped with specific instruments for various scientific and technological missions. These include communications satellites like Starlink; space stations such as the ISS; scientific satellites like the Hubble; Earth observation satellites from companies like Planet Labs, Umbra, and HawkEye 360; GPS; miniature CubeSats for education and research; and military/defense satellites.

Loading next visibility...
Identifier
61567, 2024-185R
Orbit
LEO
Country
Flag of CNCN / PRC
Related business
Manufacturer
GESIH/SECM
Mission
Operational Commercial Communications
Bus & Motor
QIANFAN, Unknown motor
Mass
267 kg wet, ~267 kg dry
Launch date (UTC)
2024-10-15 (1 year ago)
Launch vehicle
CHANG ZHENG 6A
Launch site
Taiyaun Space Center, China (TSC)
Object type
Payload
Rocket body
Debris
Shape & HBR
Box + 1 Pan, 5.0 m
Radar Cross Section
13.200 m², Large (>1 m²)

Expand to show TLE details & history
Last TLE update: 7 hours ago

TLE from 7 hours ago
0 QIANFAN-34
1 61567U 24185R   26071.98857808  .00000558  00000-0  35493-3 0  9999
2 61567  88.9721  68.1681 0007964  58.2072 301.9883 14.02391021 82007
Epoch: 2026-03-12T23:43Z
TLE epoch observation values (Epoch: 2026-03-12T23:43:33.146Z)
Latitude
0.00001°
Longitude
-98.35057°
Altitude
885.493 km
Speed
7.411 km/s
True Right ascension
04h 32m 40s
True Declination
0° 00' 00"
Sunlit
Object was in daylight at epoch
Visualization orbit readout
Latitude
Unknown
Longitude
Unknown
Altitude
Unknown
Speed
Unknown
Apparent Right ascension
Unknown
Apparent Declination
Unknown
Sunlit
N/A
Visualization observer readout
Local Sidereal Time
10:48:57
Azimuth
Unknown
Elevation
Unknown
Doppler factor
Unknown
Orbital elements
Apogee altitude
888.286 km
Perigee altitude
876.722 km
Semi-major axis
7,260.641 km
Eccentricity
0.0008
Inclination
88.9721°
RAAN
68.1681°
Arg. of periapsis
58.2072°
True anomaly
301.91086°
Mean anomaly
301.9883°
Eccentric anomaly
301.94958°
Mean motion
3.50817 °/min
Orbital period
102.62 mins
BSTAR
0.00035493
Loading maneuver chart data...
Computing Atmospheric mass density...
Loading historical data...
Loading historical data...
Loading historical data...
Loading historical data...
Loading historical data...
Loading historical data...
Loading historical data...

Documentation

Showing up to 5 results
|